Regional Weather Roundup
Issued by NWS State College, PA

Home | Current Version | Previous Version | Graphics & Text | Print | Product List | Glossary On
Versions: 1 2 3 4 5 6 7 8 9 10 11 12 13 14 15 16 17 18 19 20 21 22 23 24 25 26 27 28 29 30 31 32 33 34 35 36 37 38 39 40 41 42 43 44 45 46 47 48 49 50
000
ASUS41 KCTP 091803
RWRCTP

REGIONAL WEATHER ROUNDUP
NATIONAL WEATHER SERVICE STATE COLLEGE PA
100 PM EST TUE FEB 09 2016

Note: "fair" indicates few or no clouds below 12,000 feet with no
significant weather and/or obstructions to visibility.

* = STATION THAT DOES NOT REPORT PRECIPITATION /E.G. RAIN...SNOW...ETC/
    THUNDER OR FOG.

PAZ002>004-007>009-013>016-020>023-029>032-091900-
WESTERN PENNSYLVANIA

CITY           SKY/WX    TMP DP  RH WIND       PRES   REMARKS
ERIE           CLOUDY    33  27  78 W9        29.54F
MEADVILLE      CLOUDY    32  24  72 W13       29.51F
FRANKLIN*      CLOUDY    30  23  74 W9G16     29.53F
NEW CASTLE     CLOUDY    31  25  78 W10       29.56F
BEAVER COUNTY  CLOUDY    32  27  80 W8        29.56S
BUTLER*        CLOUDY    30  27  86 W12       29.57F
PITTSBURGH INT LGT SNOW  28  23  81 SW8       29.56F FOG
PITTSBURGH     LGT SNOW  29  24  82 SW14      29.56F VSB 1
INDIANA*       FOG       28  27  93 SW14G23   29.55S VSB 3/4
LATROBE        LGT SNOW  27  25  93 SW17G29   29.58S WCI  14
WASHINGTON CO* CLOUDY    27  21  80 SW14G20   29.59F
$$

PAZ004>006-010>012-017>019-024>028-033>037-041-042-045-046-049>053-091900-
CENTRAL PENNSYLVANIA

CITY           SKY/WX    TMP DP  RH WIND       PRES   REMARKS
BRADFORD       FLURRIES  32  25  75 NW8       29.45F
DUBOIS         LGT SNOW  32  27  81 NW9       29.46F
CLEARFIELD     LGT SNOW  34  28  79 SW10      29.47F
JOHNSTOWN      SNOW      24  19  81 SW14      29.47S VSB 1/2 WCI  12
ALTOONA        LGT SNOW  33  29  85 SW5       29.49S VSB 1
STATE COLLEGE  LGT SNOW  32  30  93 CALM      29.49F FOG
WILLIAMSPORT   LGT SNOW  35  28  75 NE5       29.53F
SELINSGROVE    LGT SNOW  32  29  88 CALM      29.55F VSB 3/4
FT INDIANTOWN  SNOW      30  30 100 E3        29.54F VSB 1/2
CAPITAL CITY   SNOW      31  29  92 CALM      29.55F VSB 1/2
HARRISBURG     SNOW      31  29  92 CALM      29.55F VSB 1/2
YORK           SNOW      31  29  92 N6        29.53F VSB 1/2
$$

PAZ038>040-043-044-047-048-054-055-060>062-067>071-091900-
EASTERN PENNSYLVANIA

CITY           SKY/WX    TMP DP  RH WIND       PRES   REMARKS
SCRANTON       CLOUDY    33  25  72 NW5       29.51F
MOUNT POCONO   CLOUDY    29  23  78 SW5       29.47F
ALLENTOWN      CLOUDY    32  25  75 E3        29.56F
QUAKERTOWN*    CLOUDY    32  27  80 CALM      29.56F
READING        CLOUDY    34  27  75 E8        29.54F
LANCASTER      SNOW      30  29  96 E8        29.54F VSB 1/2
COATESVILLE    SNOW      30  30 100 E9G16     29.54F VSB 1/2
POTTSTOWN      LGT SNOW  31  27  85 E5        29.57F FOG
BLUE BELL        N/A     32  28  86 E3        29.55F
DOYLESTOWN     CLOUDY    30  26  85 CALM      29.55F
WILLOW GROVE   NOT AVBL
NORTH PHILA    CLOUDY    35  29  78 E7        29.58F
PHILADELPHIA   FLURRIES  36  29  75 NE8       29.56F
$$



USA.gov is the U.S. government's official web portal to all federal, state and local government web resources and services.